Time,TemperatureF,DewpointF,PressureIn,WindDirection,WindDirectionDegrees,WindSpeedMPH,WindSpeedGustMPH,Humidity,HourlyPrecipIn,Conditions,Clouds,dailyrainin,SoftwareType,DateUTC
2013-08-17 08:21:00,68.0,64.0,30.07,North,-999,-999.0,-999.0,87,-99.99,,,-99.99,,2013-08-17 13:21:00,
2013-08-17 08:52:00,70.0,65.0,30.07,North,355,1.0,-999.0,84,-99.99,,,-99.99,,2013-08-17 13:52:00,
2013-08-17 09:11:00,70.0,64.0,30.07,NNW,337,2.0,-999.0,82,-99.99,,,-99.99,,2013-08-17 14:11:00,
2013-08-17 09:21:00,70.0,65.0,30.08,NNE,22,4.0,-999.0,83,-99.99,,,-99.99,,2013-08-17 14:21:00,
2013-08-17 09:42:00,71.0,66.0,30.08,NNE,29,1.0,-999.0,83,-99.99,,,-99.99,,2013-08-17 14:42:00,
2013-08-17 09:52:00,72.0,66.0,30.08,NE,37,3.0,-999.0,81,-99.99,,,-99.99,,2013-08-17 14:52:00,
2013-08-17 10:22:00,74.0,66.0,30.09,NE,46,5.0,-999.0,77,-99.99,,,-99.99,,2013-08-17 15:22:00,
2013-08-17 10:43:00,74.0,65.0,30.09,ESE,105,6.0,-999.0,74,-99.99,,,-99.99,,2013-08-17 15:43:00,
2013-08-17 10:53:00,75.0,67.0,30.09,ENE,67,4.0,-999.0,75,-99.99,,,-99.99,,2013-08-17 15:53:00,
2013-08-17 11:12:00,75.0,66.0,30.09,NE,48,3.0,-999.0,74,-99.99,,,-99.99,,2013-08-17 16:12:00,
2013-08-17 11:23:00,76.0,67.0,30.09,ENE,62,4.0,-999.0,73,-99.99,,,-99.99,,2013-08-17 16:23:00,
2013-08-17 11:53:00,77.0,64.0,30.08,ENE,57,7.0,-999.0,65,-99.99,,,-99.99,,2013-08-17 16:53:00,
2013-08-17 12:12:00,77.0,64.0,30.08,East,95,6.0,-999.0,65,-99.99,,,-99.99,,2013-08-17 17:12:00,
2013-08-17 12:23:00,77.0,65.0,30.08,ENE,64,8.0,-999.0,66,-99.99,,,-99.99,,2013-08-17 17:23:00,
2013-08-17 12:52:00,77.0,65.0,30.07,ENE,71,6.0,-999.0,66,-99.99,,,-99.99,,2013-08-17 17:52:00,
2013-08-17 13:12:00,76.0,65.0,30.07,ENE,68,8.0,-999.0,68,-99.99,,,-99.99,,2013-08-17 18:12:00,
2013-08-17 13:21:00,77.0,65.0,30.07,ENE,59,3.0,-999.0,67,-99.99,,,-99.99,,2013-08-17 18:21:00,
2013-08-17 13:52:00,77.0,63.0,30.06,East,80,7.0,-999.0,63,-99.99,,,-99.99,,2013-08-17 18:52:00,
2013-08-17 14:11:00,77.0,64.0,30.06,ENE,61,7.0,-999.0,65,-99.99,,,-99.99,,2013-08-17 19:11:00,
2013-08-17 14:21:00,78.0,64.0,30.05,ENE,72,6.0,-999.0,63,-99.99,,,-99.99,,2013-08-17 19:21:00,
2013-08-17 14:52:00,78.0,66.0,30.04,NE,52,5.0,-999.0,66,-99.99,,,-99.99,,2013-08-17 19:52:00,
2013-08-17 15:21:00,79.0,66.0,30.03,ENE,76,0.0,-999.0,65,-99.99,,,-99.99,,2013-08-17 20:21:00,
2013-08-17 15:52:00,79.0,67.0,30.04,ENE,61,3.0,-999.0,66,-99.99,,,-99.99,,2013-08-17 20:52:00,
2013-08-17 16:21:00,79.0,66.0,30.03,East,95,3.0,-999.0,64,-99.99,,,-99.99,,2013-08-17 21:21:00,
2013-08-17 16:54:00,79.0,66.0,30.03,NE,43,1.0,-999.0,65,-99.99,,,-99.99,,2013-08-17 21:54:00,
2013-08-17 17:13:00,79.0,67.0,30.03,NE,44,0.0,-999.0,66,-99.99,,,-99.99,,2013-08-17 22:13:00,
2013-08-17 17:22:00,79.0,66.0,30.03,ENE,67,1.0,-999.0,64,-99.99,,,-99.99,,2013-08-17 22:22:00,
2013-08-17 17:52:00,79.0,66.0,30.02,North,360,0.0,-999.0,65,-99.99,,,-99.99,,2013-08-17 22:52:00,
2013-08-17 18:22:00,78.0,66.0,30.02,NNE,30,0.0,-999.0,67,-99.99,,,-99.99,,2013-08-17 23:22:00,
2013-08-17 18:52:00,78.0,67.0,30.02,NE,46,0.0,-999.0,68,-99.99,,,-99.99,,2013-08-17 23:52:00,
2013-08-17 19:21:00,77.0,66.0,30.02,NE,40,0.0,-999.0,70,-99.99,,,-99.99,,2013-08-18 00:21:00,
2013-08-17 19:42:00,77.0,66.0,30.03,NNE,31,0.0,-999.0,70,-99.99,,,-99.99,,2013-08-18 00:42:00,
2013-08-17 19:52:00,76.0,66.0,30.03,NNE,14,5.0,-999.0,72,-99.99,,,-99.99,,2013-08-18 00:52:00,
2013-08-17 20:11:00,75.0,66.0,30.03,NE,47,4.0,-999.0,73,-99.99,,,-99.99,,2013-08-18 01:11:00,